FW2094 Weather Reports


time (UTC)temp
C
wind
direction
speed
KPH
gust
KPH
rain 1hr
cm
rain 24hr
cm
rain mn
cm
humidity
%
barometer
mb
20260504224539 14 204 4.8 9.7 0.00 0.00 0.00 69 1015.0
20260504223052 15 340 4.8 17.7 0.00 0.00 0.00 68 1015.0
20260504221531 15 22 4.8 12.9 0.00 0.00 0.00 67 1015.0
20260504220028 15 28 3.2 9.7 0.00 0.00 0.00 67 1015.0
20260504214529 15 188 3.2 12.9 0.00 0.00 0.00 68 1015.2
20260504213039 15 297 3.2 14.5 0.00 0.00 0.00 69 1015.2
20260504211532 15 223 3.2 11.3 0.00 0.00 0.00 70 1015.2
20260504210024 16 261 3.2 9.7 0.00 0.00 0.00 67 1015.4
20260504204535 16 339 1.6 11.3 0.00 0.00 0.00 67 1015.3
20260504203025 16 311 3.2 14.5 0.00 0.00 0.00 67 1015.3
20260504201522 16 181 3.2 9.7 0.00 0.00 0.00 66 1015.2
20260504200024 16 210 4.8 14.5 0.00 0.00 0.00 66 1015.2
20260504194521 16 289 4.8 14.5 0.00 0.00 0.00 67 1015.1
20260504193023 16 235 3.2 14.5 0.00 0.00 0.00 65 1014.9
20260504191524 16 360 3.2 12.9 0.00 0.00 0.00 67 1014.8
20260504190022 16 279 0.0 9.7 0.00 0.00 0.00 67 1014.7
20260504184520 16 185 3.2 11.3 0.00 0.00 0.00 65 1014.7
20260504183019 17 321 3.2 14.5 0.00 0.00 0.00 64 1014.7
20260504181518 17 256 4.8 9.7 0.00 0.00 0.00 62 1014.8
20260504180019 18 238 4.8 12.9 0.00 0.00 0.00 60 1014.7
20260504174518 18 317 4.8 14.5 0.00 0.00 0.00 58 1014.5
20260504173017 19 360 4.8 14.5 0.00 0.00 0.00 56 1014.5
20260504171517 19 225 4.8 16.1 0.00 0.00 0.00 55 1014.5
20260504140104 23 360 3.2 8.0 0.00 0.00 0.00 44 1015.1
20260504081512 18 360 0.0 6.4 0.00 0.00 0.00 59 1017.2